THOR ABLESTAR DEB, 120

Orbit data source: Space-Track

THOR ABLESTAR DEB, 120 is space debris in LEO originally from a launch on Thu, 29 Jun 1961 UTC launched from the Air Force Eastern Test Range (AFETR). Debris objects in space refer to the collection of defunct objects orbiting the Earth. Examples of debris include non-operational satellites, rocket bodies, and fragments generated from explosions, collisions, or faulty payload assembly.

Loading next visibility...
Identifier
120, 1961-015E
Orbit
LEO
Country
Flag of USUS
Related business
Manufacturer
Unknown
Mission
Spacecraft
Bus & Motor
Unknown
Mass
Unknown
Launch date (UTC)
1961-06-29 (65 years ago)
Launch vehicle
Unknown
Launch site
Air Force Eastern Test Range (AFETR)
Object type
Payload
Rocket body
Debris
Shape & HBR
Unknown shape, 0.2 m
Radar Cross Section
Medium (>0.1 m² and <1 m²)

Expand to show TLE details & history
Last TLE update: 15 hours ago

TLE from 15 hours ago
0 THOR ABLESTAR DEB
1 00120U 61015E   26106.03645650  .00000261  00000-0  12764-3 0  9992
2 00120  66.7049 234.0048 0105527  47.1560 313.8344 14.29515797339440
Epoch: 2026-04-16T00:52Z
TLE epoch observation values (Epoch: 2026-04-16T00:52:29.841Z)
Latitude
-0.00001°
Longitude
16.69069°
Altitude
743.458 km
Speed
7.511 km/s
True Right ascension
15h 36m 01s
True Declination
0° 00' 00"
Sunlit
Object was in full shadow at epoch
Visualization orbit readout
Latitude
Unknown
Longitude
Unknown
Altitude
Unknown
Speed
Unknown
Apparent Right ascension
Unknown
Apparent Declination
Unknown
Sunlit
N/A
Visualization observer readout
Local Sidereal Time
22:11:52
Azimuth
Unknown
Elevation
Unknown
Doppler factor
Unknown
Orbital elements
Apogee altitude
867.386 km
Perigee altitude
716.063 km
Semi-major axis
7,169.861 km
Eccentricity
0.01055
Inclination
66.7049°
RAAN
234.0048°
Arg. of periapsis
47.156°
True anomaly
312.95411°
Mean anomaly
313.8344°
Eccentric anomaly
313.39506°
Mean motion
3.57501 °/min
Orbital period
100.7 mins
BSTAR
0.00012764
Loading maneuver chart data...
Computing Atmospheric mass density...
Loading historical data...
Loading historical data...
Loading historical data...
Loading historical data...
Loading historical data...
Loading historical data...
Loading historical data...

Documentation

Showing up to 5 results
|